Miscellaneous Local Product
Issued by NWS Hastings, NE

Home | Current Version | Previous Version | Text Only | Print | Product List | Glossary On
Versions: 1 2 3 4 5 6 7 8 9 10 11 12 13 14 15 16 17 18 19 20 21 22 23 24 25 26 27 28 29 30 31 32 33 34 35 36 37 38 39 40 41 42 43 44 45 46 47 48 49 50
136
AXUS43 KGID 220502
MISGRI

GID CWA HOURLY WEATHER ROUNDUP
NATIONAL WEATHER SERVICE HASTINGS NE
1100 PM CST TUE NOV 21 2017

NOTE: "FAIR" INDICATES FEW OR NO CLOUDS BELOW 12,000 FEET WITH NO
SIGNIFICANT WEATHER AND/OR OBSTRUCTIONS TO VISIBILITY.

...SOUTH CENTRAL NEBRASKA...

CITY           SKY/WX    TMP DP  RH WIND       PRES   REMARKS
GRAND ISLAND   CLOUDY    17  12  80 CALM      30.39F
KEARNEY        CLOUDY    21  12  68 SW5       30.39R WCI  15
HASTINGS       CLEAR     16   8  71 CALM      30.38F
ORD            CLOUDY    12   7  80 CALM      30.36R
YORK           CLOUDY    16  12  86 N5        30.40F WCI   9
AURORA         CLOUDY    14   8  78 CALM      30.39F
LEXINGTON      CLOUDY    23  14  68 SE6       30.37S WCI  15
HOLDREGE       CLEAR     19  11  70 CALM      30.37S
HEBRON         CLOUDY    21  13  72 CALM      30.42S

...NEBRASKA PANHANDLE...

CITY           SKY/WX    TMP DP  RH WIND       PRES   REMARKS
CHADRON        CLOUDY    23  21  92 CALM      30.21F
ALLIANCE       CLOUDY    26  24  92 SE8       30.22F WCI  18
SCOTTSBLUFF    CLOUDY    31  23  72 E7        30.22F WCI  24
SIDNEY         CLOUDY    29  24  82 S10       30.26F WCI  20

...WESTERN AND NORTH CENTRAL NEBRASKA...

CITY           SKY/WX    TMP DP  RH WIND       PRES   REMARKS
VALENTINE      CLOUDY    16  11  80 S6        30.30S WCI   7
AINSWORTH      CLOUDY    18  12  77 S6        30.31S WCI   9
ONEILL         CLOUDY    12  10  91 SW6       30.35S WCI   2
BROKEN BOW     CLOUDY    17  10  74 SW3       30.35R
IMPERIAL       CLOUDY    26  21  81 S7        30.33R WCI  18
NORTH PLATTE   CLOUDY    21  15  78 CALM      30.33F
MCCOOK         CLOUDY    26  16  65 S5        30.37R WCI  20

...EASTERN NEBRASKA...

CITY           SKY/WX    TMP DP  RH WIND       PRES   REMARKS
NORFOLK        CLOUDY    14  10  84 W3        30.37F
SO SIOUX CITY  CLOUDY    17   9  70 NW8       30.40S WCI   7
TEKAMAH        CLOUDY    14   7  73 SW3       30.42R
COLUMBUS       CLOUDY    17  11  77 W5        30.41F WCI  10
ALBION         CLOUDY    12   8  82 CALM      30.37F
OMAHA EPPLEY   CLOUDY    19  11  70 N10       30.41S WCI   7
MILLARD        CLOUDY    23  12  62 NW6       30.41S WCI  15
LINCOLN        CLOUDY    21  12  68 MISG      30.44R
NEBRASKA CITY  CLOUDY    21  13  72 NW8       30.41R WCI  12
BEATRICE       CLOUDY    17  12  83 CALM      30.42S
FALLS CITY     CLOUDY    22  13  68 NW8       30.41R WCI  12

...NORTHERN KANSAS...

CITY           SKY/WX    TMP DP  RH WIND       PRES   REMARKS
GOODLAND       CLOUDY    31  24  75 S8        30.32F WCI  23
HILL CITY      CLOUDY    21  13  71 CALM      30.41R
NORTON         CLEAR     19   9  63 S3        30.38S
PHILLIPSBURG   CLEAR     21  10  63 CALM      30.42R
SMITH CENTER   CLEAR     16  10  79 CALM      30.42S
HAYS           CLOUDY    23  13  65 W3        30.42R
RUSSELL        CLOUDY    25  12  58 NE5       30.40S WCI  19
CONCORDIA      PTCLDY    23  12  62 NE5       30.42S WCI  17
SALINA         CLOUDY    25  13  60 NW5       30.44R WCI  19
TOPEKA         CLOUDY    26  15  63 N6        30.41S WCI  19



USA.gov is the U.S. government's official web portal to all federal, state and local government web resources and services.